Volver al catálogo

THORAD AGENA D DEB

ActivoLEO
NORAD 19351·DEBRIS·🇺🇸 United States

Lanzado Apr 8, 1970 desde Vandenberg Space Force Base

Loading…

Próximos Pases (próximas 24 horas)

TLE

ActualizadoSource: Space-Track

Época: Sep 14, 2026, 02:23 UTC

1 19351U 70025PW  26257.09954648  .00000317  00000-0  39652-3 0  9999
2 19351 100.1087 111.4490 0028969 330.9063 180.5959 13.72910869942914

Sigue THORAD AGENA D DEB en tiempo real con AllMySat

Download on the App Store